Point Salines, Grenada

12:17 PM AST on August 21, 2017 (GMT -0400)
Point Salines International

Weather History for TGPY - December, 2013

Change the Weather History Date:

Monday, December 9, 2013

  Actual Average Record
Temperature  
Mean Temperature 80 °F -  
Max Temperature 85 °F 83 °F 96 °F (2005)
Min Temperature 75 °F 74 °F 73 °F (2002)
Cooling Degree Days 15    
Growing Degree Days 30 (Base 50)    
Moisture  
Dew Point 76 °F    
Average Humidity 86    
Maximum Humidity 95    
Minimum Humidity 73    
Precipitation  
Precipitation 0.28 in - - ()
Sea Level Pressure  
Sea Level Pressure 29.95 in    
Wind  
Wind Speed 12 mph ()    
Max Wind Speed 69 mph    
Max Gust Speed -    
Visibility 6.8 miles    
Events Rain    
Averages and records for this station are not official NWS values.
T = Trace of Precipitation, MM = Missing Value Source: Averaged Metar Reports

Daily Weather History Graph

Daily Weather History Graph

Search for Another Location

Airport or City:

Trip Planner

Search our weather history database for the weather conditions in past years. The results will help you decide how hot, cold, wet, or windy it might be!

Date:

Astronomy

Dec. 09, 2013 Rise Set
Actual Time 6:16 AM AST 5:42 PM AST
Civil Twilight 5:53 AM AST 6:05 PM AST
Nautical Twilight 5:27 AM AST 6:32 PM AST
Astronomical Twilight 5:00 AM AST 6:58 PM AST
Moon 12:05 PM AST (12/9) No Moon Set
Length of Visible Light 12h 12m
Length of Day
11h 26m
Waxing Crescent, 50% of the Moon is Illuminated
Dec 9
Waxing Crescent
Dec 17
Full
Dec 25
Last Quarter
Jan 1
New
Jan 7
First Quarter

Hourly Weather History & Observations

Time (AST) Temp. Heat Index Dew Point Humidity Pressure Visibility Wind Dir Wind Speed Gust Speed Precip Events Conditions
12:00 AM 78.8 °F - 75.2 °F 89% 29.95 in 6.2 mi East 11.5 mph - N/A   Partly Cloudy
1:00 AM 78.8 °F - 75.2 °F 89% 29.95 in 6.2 mi East 9.2 mph - N/A   Partly Cloudy
2:00 AM 78 °F - 75 °F 88% 29.94 in 11 mi East 8.1 mph - -   Widespread Dust
2:00 AM 78.8 °F - 75.2 °F 89% 29.92 in 6.2 mi East 8.1 mph - N/A   Scattered Clouds
3:00 AM 78.8 °F - 75.2 °F 89% 29.92 in - North - - N/A   Scattered Clouds
4:00 AM 78.8 °F - 75.2 °F 89% 29.92 in 6.2 mi East 9.2 mph - N/A   Scattered Clouds
5:00 AM 80 °F - 75 °F 79% 29.93 in 10 mi East 9.2 mph - -   Widespread Dust
5:00 AM 80.6 °F 86.2 °F 75.2 °F 84% 29.92 in 6.2 mi East 9.2 mph - N/A   Partly Cloudy
6:00 AM 78.8 °F - 75.2 °F 89% 29.95 in 6.2 mi East 11.5 mph - N/A   Scattered Clouds
7:00 AM 78.8 °F - 75.2 °F 89% 29.95 in 6.2 mi East 10.4 mph - N/A   Scattered Clouds
8:00 AM 82 °F - 76 °F 78% 29.99 in 11 mi East 11.5 mph - -   Widespread Dust
8:00 AM 82.4 °F 90.9 °F 77.0 °F 84% 29.98 in 6.2 mi East 11.5 mph - N/A   Scattered Clouds
9:00 AM 84.2 °F 92.3 °F 75.2 °F 74% 29.98 in 6.2 mi East 15.0 mph - N/A   Mostly Cloudy
10:00 AM 84.2 °F 94.1 °F 77.0 °F 79% 30.01 in 6.2 mi East 12.7 mph - N/A   Partly Cloudy
11:00 AM 83 °F - 77 °F 77%  in 11 mi East 17.3 mph - -   Partly Cloudy
11:00 AM 82.4 °F 90.9 °F 77.0 °F 84% 29.98 in 6.2 mi East 17.3 mph - N/A   Scattered Clouds
12:00 PM 80.6 °F 87.1 °F 77.0 °F 89% 29.98 in 6.2 mi ESE 13.8 mph - N/A Rain Light Rain Showers
1:00 PM 78.8 °F - 77.0 °F 94% 29.95 in 6.2 mi ESE 12.7 mph - N/A   Mostly Cloudy
2:00 PM 85 °F - 78 °F 73% 29.94 in 11 mi East 15.0 mph - -   Mostly Cloudy
2:00 PM 84.2 °F 94.1 °F 77.0 °F 79% 29.92 in 6.2 mi East 15.0 mph - N/A   Scattered Clouds
3:00 PM 84.2 °F 92.3 °F 75.2 °F 74% 29.92 in 5.0 mi North - - N/A Rain Light Rain Showers
4:00 PM 80.6 °F 87.1 °F 77.0 °F 89% 29.92 in 6.2 mi ENE 69.0 mph - N/A   Mostly Cloudy
5:00 PM 80 °F - 76 °F 84% 29.92 in 6 mi East 12.7 mph - -   Widespread Dust
5:00 PM 80.6 °F 87.1 °F 77.0 °F 89% 29.92 in 6.2 mi East 12.7 mph - N/A   Mostly Cloudy
6:00 PM 78.8 °F - 77.0 °F 94% 29.92 in 6.2 mi East 16.1 mph - N/A Rain Light Rain Showers
7:00 PM 78.8 °F - 75.2 °F 89% 29.92 in 6.2 mi ENE 10.4 mph - N/A   Scattered Clouds
8:00 PM 77 °F - 76 °F 95% 29.96 in 5 mi East 9.2 mph - - Rain Light Rain Showers
8:00 PM 77.0 °F - 75.2 °F 94% 29.95 in 6.2 mi East 9.2 mph - N/A   Scattered Clouds
9:00 PM 77.0 °F - 75.2 °F 94% 29.98 in 6.2 mi East 16.1 mph - N/A Rain Light Rain Showers
10:00 PM 78.8 °F - 75.2 °F 89% 29.98 in 6.2 mi ENE 8.1 mph - N/A   Scattered Clouds
11:00 PM 77 °F - 76 °F 95% 29.98 in 5 mi East 16.1 mph - - Rain Light Rain Showers
11:00 PM 77.0 °F - 75.2 °F 94% 29.98 in 5.0 mi East 16.1 mph - N/A Rain Light Rain Showers